Regional Weather Roundup
Issued by NWS Albany, NY

Home | Current Version | Previous Version | Text Only | Print | Product List | Glossary On
Versions: 1 2 3 4 5 6 7 8 9 10 11 12 13 14 15 16 17 18 19 20 21 22 23 24 25 26 27 28 29 30 31 32 33 34 35 36 37 38 39 40 41 42 43 44 45 46 47 48 49 50
000
ASUS41 KALY 300910
RWRALY

NEW YORK STATE HOURLY WEATHER ROUNDUP
NATIONAL WEATHER SERVICE ALBANY NY
500 AM EDT SAT MAY 30 2015

NOTE: "FAIR" INDICATES FEW OR NO CLOUDS BELOW 12,000 FEET WITH NO
SIGNIFICANT WEATHER AND/OR NO OBSTRUCTIONS TO VISIBILITY.

NYZ032-033-038>043-046>054-057>066-NYZ062>081-301000-
EAST


CITY           SKY/WX    TMP DP  RH WIND       PRES   REMARKS
ALBANY         PTCLDY    67  56  67 S9        30.14S
GLENS FALLS    FAIR      61  57  87 SW6       30.12F
POUGHKEEPSIE   CLOUDY    64  59  83 CALM      30.17F
NEWBURGH       MOCLDY    66  63  88 CALM      30.19F
MONTGOMERY     MOCLDY    62  59  90 CALM      30.18S
WHITE PLAINS   CLEAR     60  58  92 CALM      30.20R FOG
ISLIP          CLEAR     64  61  90 SW8       30.20R
NEW YORK CITY  CLEAR     67  61  81 S7        30.19S
CENTRAL PARK   CLEAR     68  62  81 VRB3      30.22S
$$

NYZ005>009-017-018-044>046-055-056-301000-
CENTRAL


CITY           SKY/WX    TMP DP  RH WIND       PRES   REMARKS
FULTON         MOCLDY    74  63  68 S10       30.02F
SYRACUSE       CLOUDY    75  64  68 S10       30.03S
ROME           CLOUDY    69  59  70 E7        30.09S
ELMIRA         CLOUDY    73  66  78 SW7       30.09S
BINGHAMTON     MOCLDY    67  63  87 S10       30.14F
MONTICELLO     CLOUDY    61  57  88 E3        30.22R
$$

NYZ026>034-041>043-301000-
NORTH


CITY           SKY/WX    TMP DP  RH WIND       PRES   REMARKS
WATERTOWN      PTCLDY    74  61  63 S12G17    29.99S
FORT DRUM      NOT AVBL
MASSENA        CLOUDY    75  60  59 S15       29.96F
SARANAC LAKE   MOCLDY    66  57  72 SW10      30.06F
PLATTSBURGH    PTCLDY    58  56  93 CALM      30.03S
$$

NYZ001>004-010>016-019>021-301000-
WEST


CITY           SKY/WX    TMP DP  RH WIND       PRES   REMARKS
NIAGARA FALLS  PTCLDY    68  63  84 S9        29.98F
BUFFALO        PTCLDY    73  63  70 SW16      30.00F
DUNKIRK        PTCLDY    71  64  78 S17G28    30.02S
JAMESTOWN      CLEAR     64  61  88 S7        30.10S
WELLSVILLE     PTCLDY    67  62  84 S10       30.14R
ROCHESTER      PTCLDY    74  64  71 SW13      30.01S
PENN YAN       CLOUDY    73  63  70 S8        30.06S
$$

             KEY
       WCI = WIND CHILL INDEX
       VSB = VISIBILITY
       HX  = HEAT INDEX
$$



USA.gov is the U.S. government's official web portal to all federal, state and local government web resources and services.